Location: Newark
(33.6333°S, 78.8500°W)
Time: 15:50:38
(UTC+00:00)

Tiros 1 - Pass Details

Date: 24 October 2019
Orbit: 630 x 664 km, 48.4° (Epoch: 14 November)

Event Time Altitude Azimuth Distance (km) Brightness Sun altitude
Rises 18:45:14 0° 256° (WSW) 2,954 10.8 57.5°
Reaches altitude 10° 18:48:21 10° 235° (SW) 2,041 10.0 57.0°
Maximum altitude 18:51:22 17° 195° (SSW) 1,643 9.3 56.5°
Drops below altitude 10° 18:54:23 10° 155° (SSE) 2,036 9.5 55.9°
Sets 18:57:30 0° 134° (SE) 2,943 10.2 55.4°
